Louisville Bowman, KY

5:15 AM EDT on June 26, 2017 (GMT -0400)
Bowman

Weather History for KLOU - July, 2014

Change the Weather History Date:

Monday, July 28, 2014

  Actual Average Record
Temperature  
Mean Temperature 71 °F 78 °F  
Max Temperature 78 °F 87 °F 102 °F (1952)
Min Temperature 63 °F 68 °F 54 °F (2013)
Degree Days  
Heating Degree Days 0 0  
Month to date heating degree days 0 0  
Since 1 June heating degree days 0 3  
Since 1 July heating degree days 0 0  
Cooling Degree Days 6 13  
Month to date cooling degree days 291 364  
Year to date cooling degree days 950 816  
Since 1 June cooling degree days 695 669  
Growing Degree Days 20 (Base 50)    
Moisture  
Dew Point 58 °F    
Average Humidity 67    
Maximum Humidity 84    
Minimum Humidity 50    
Precipitation  
Precipitation T in 0.13 in 1.03 in (1972)
Month to date precipitation 3.81 3.80  
Year to date precipitation 24.86 27.86  
Sea Level Pressure  
Sea Level Pressure 29.96 in    
Wind  
Wind Speed 8 mph (NW)    
Max Wind Speed 15 mph    
Max Gust Speed 21 mph    
Visibility 10 miles    
Events      
T = Trace of Precipitation, MM = Missing Value Source: NWS Daily Summary

Daily Weather History Graph

Daily Weather History Graph

Search for Another Location

Airport or City:

Trip Planner

Search our weather history database for the weather conditions in past years. The results will help you decide how hot, cold, wet, or windy it might be!

Date:

Astronomy

Jul. 28, 2014 Rise Set
Actual Time 6:41 AM EDT 8:56 PM EDT
Civil Twilight 6:12 AM EDT 9:25 PM EDT
Nautical Twilight 5:35 AM EDT 10:01 PM EDT
Astronomical Twilight 4:55 AM EDT 10:41 PM EDT
Moon 8:20 AM EDT (7/28) 9:40 PM EDT (7/28)
Length of Visible Light 15h 13m
Length of Day
14h 14m
Waxing Crescent, 3% of the Moon is Illuminated
Jul 28
Waxing Crescent
Aug 3
First Quarter
Aug 10
Full
Aug 17
Last Quarter
Aug 25
New

Hourly Weather History & Observations

Time (EDT) Temp. Dew Point Humidity Pressure Visibility Wind Dir Wind Speed Gust Speed Precip Events Conditions
12:53 AM 75.0 °F 59.0 °F 57% 29.85 in 10.0 mi NW 12.7 mph 21.9 mph N/A   Clear
1:53 AM 72.0 °F 57.9 °F 61% 29.87 in 10.0 mi WNW 8.1 mph - N/A   Clear
2:53 AM 71.1 °F 57.9 °F 63% 29.87 in 10.0 mi West 6.9 mph - N/A   Clear
3:53 AM 69.1 °F 57.9 °F 68% 29.87 in 10.0 mi West 8.1 mph - N/A   Clear
4:53 AM 68.0 °F 57.9 °F 70% 29.88 in 10.0 mi West 5.8 mph - N/A   Clear
5:53 AM 66.0 °F 59.0 °F 78% 29.90 in 10.0 mi WSW 5.8 mph - N/A   Clear
6:53 AM 64.9 °F 59.0 °F 81% 29.91 in 10.0 mi West 6.9 mph - N/A   Clear
7:53 AM 66.9 °F 60.1 °F 79% 29.93 in 10.0 mi WNW 6.9 mph - N/A   Clear
8:43 AM 68.0 °F 59.0 °F 73% 29.96 in 10.0 mi NW 9.2 mph - N/A   Mostly Cloudy
8:53 AM 68.0 °F 60.1 °F 76% 29.95 in 10.0 mi NW 10.4 mph - N/A   Overcast
9:53 AM 69.8 °F 57.2 °F 64% 29.97 in 10.0 mi NW 13.8 mph - N/A   Mostly Cloudy
10:53 AM 70.0 °F 59.0 °F 68% 29.97 in 10.0 mi NW 8.1 mph - N/A   Overcast
11:53 AM 72.0 °F 59.0 °F 64% 29.99 in 10.0 mi NNW 8.1 mph - N/A   Overcast
12:53 PM 73.9 °F 57.9 °F 57% 29.99 in 10.0 mi North 9.2 mph - N/A   Mostly Cloudy
1:53 PM 73.4 °F 57.2 °F 57% 30.00 in 10.0 mi WNW 6.9 mph - N/A   Overcast
2:53 PM 75.2 °F 60.8 °F 61% 30.00 in 10.0 mi North 8.1 mph - N/A   Mostly Cloudy
3:53 PM 77.0 °F 57.9 °F 52% 29.99 in 10.0 mi NNW 8.1 mph - N/A   Mostly Cloudy
4:53 PM 75.9 °F 57.9 °F 54% 29.99 in 10.0 mi North 11.5 mph - N/A   Partly Cloudy
5:53 PM 75.9 °F 59.0 °F 56% 29.99 in 10.0 mi North 9.2 mph - 0.00 in   Mostly Cloudy
6:53 PM 75.0 °F 57.9 °F 55% 29.99 in 10.0 mi North 6.9 mph - N/A   Partly Cloudy
7:53 PM 75.0 °F 59.0 °F 57% 29.98 in 10.0 mi NNW 9.2 mph - N/A   Partly Cloudy
8:53 PM 73.0 °F 55.9 °F 55% 29.99 in 10.0 mi NNW 6.9 mph - N/A   Scattered Clouds
9:53 PM 70.0 °F 55.9 °F 61% 30.01 in 10.0 mi North 9.2 mph - N/A   Clear
10:53 PM 68.0 °F 55.0 °F 63% 30.03 in 10.0 mi North 8.1 mph - N/A   Clear
11:53 PM 66.0 °F 55.0 °F 68% 30.03 in 10.0 mi NNW 8.1 mph - N/A   Clear